User: anonymous   Login
Location: Potawatomi Wildlife Park
(41.2308°N, 86.1050°W)
Time: 00:51:22
(UTC-04:00)
Language:

SL-16 R/B - Orbit

View from above orbital plane
View from above orbital plane
View from above satellite
View from above satellite

Ground track
Ground track

The orbit data is extracted from the following two-line orbital elements,

1 27006U 01056F   14302.49262910  .00000049  00000-0  10177-3 0  2782
2 27006 099.1786 104.3086 0013794 302.1758 127.4602 13.70926902644723
Epoch (UTC): 29 October 2014 11:49:23
Eccentricity: 0.0013794
inclination: 99.1786°
perigee height: 986 km
apogee height: 1006 km
right ascension of ascending node: 104.3086°
argument of perigee: 302.1758°
revolutions per day: 13.70926902
mean anomaly at epoch: 127.4602°
orbit number at epoch: 64472

The dashed part of the orbit path shows where the satellite is in the earth's shadow,  

DLR